Time,TemperatureF,DewpointF,PressureIn,WindDirection,WindDirectionDegrees,WindSpeedMPH,WindSpeedGustMPH,Humidity,HourlyPrecipIn,Conditions,Clouds,dailyrainin,SolarRadiationWatts/m^2,SoftwareType,DateUTC
2013-08-30 00:04:00,80.0,72.0,-100.00,South,187,3.0,8.0,76,0.00,,,0.00,0.000000,,2013-08-30 05:04:00,
2013-08-30 00:42:00,78.0,71.0,-100.00,SSW,193,3.0,7.0,80,0.00,,,0.00,0.000000,,2013-08-30 05:42:00,
2013-08-30 00:52:00,78.0,71.0,-100.00,SSW,193,3.0,7.0,80,0.00,,,0.00,0.000000,,2013-08-30 05:52:00,
2013-08-30 01:02:00,78.0,71.0,-100.00,SSW,193,3.0,7.0,80,0.00,,,0.00,0.000000,,2013-08-30 06:02:00,
2013-08-30 01:42:00,77.0,71.0,-100.00,SSW,197,3.0,6.0,83,0.00,,,0.00,0.000000,,2013-08-30 06:42:00,
2013-08-30 01:53:00,77.0,71.0,-100.00,SSW,197,3.0,6.0,83,0.00,,,0.00,0.000000,,2013-08-30 06:53:00,
2013-08-30 02:02:00,77.0,71.0,-100.00,SSW,197,3.0,6.0,83,0.00,,,0.00,0.000000,,2013-08-30 07:02:00,
2013-08-30 02:44:00,76.0,71.0,-100.00,SSW,197,5.0,7.0,84,0.00,,,0.00,0.000000,,2013-08-30 07:44:00,
2013-08-30 02:53:00,76.0,71.0,-100.00,SSW,197,5.0,7.0,84,0.00,,,0.00,0.000000,,2013-08-30 07:53:00,
2013-08-30 03:03:00,76.0,71.0,-100.00,SSW,197,5.0,7.0,84,0.00,,,0.00,0.000000,,2013-08-30 08:03:00,
2013-08-30 03:43:00,76.0,70.0,-100.00,SSW,198,5.0,9.0,83,0.00,,,0.00,0.000000,,2013-08-30 08:43:00,
2013-08-30 03:52:00,76.0,70.0,-100.00,SSW,198,5.0,9.0,83,0.00,,,0.00,0.000000,,2013-08-30 08:52:00,
2013-08-30 04:01:00,76.0,70.0,-100.00,SSW,198,5.0,9.0,83,0.00,,,0.00,0.000000,,2013-08-30 09:01:00,
2013-08-30 04:44:00,76.0,70.0,-100.00,SSW,210,6.0,10.0,83,0.00,,,0.00,0.000000,,2013-08-30 09:44:00,
2013-08-30 04:53:00,76.0,70.0,-100.00,SSW,210,6.0,10.0,83,0.00,,,0.00,0.000000,,2013-08-30 09:53:00,
2013-08-30 05:03:00,76.0,70.0,-100.00,SSW,210,6.0,10.0,83,0.00,,,0.00,0.000000,,2013-08-30 10:03:00,
2013-08-30 05:43:00,75.0,70.0,-100.00,SSW,207,4.0,10.0,85,0.00,,,0.00,0.000000,,2013-08-30 10:43:00,
2013-08-30 05:53:00,75.0,70.0,-100.00,SSW,207,4.0,10.0,85,0.00,,,0.00,0.000000,,2013-08-30 10:53:00,
2013-08-30 06:03:00,75.0,70.0,-100.00,SSW,207,4.0,10.0,85,0.00,,,0.00,0.000000,,2013-08-30 11:03:00,
2013-08-30 06:42:00,74.0,70.0,-100.00,SSW,213,4.0,10.0,87,0.00,,,0.00,0.000000,,2013-08-30 11:42:00,
2013-08-30 06:52:00,74.0,70.0,-100.00,SSW,213,4.0,10.0,87,0.00,,,0.00,0.000000,,2013-08-30 11:52:00,
2013-08-30 07:01:00,74.0,70.0,-100.00,SSW,213,4.0,10.0,87,0.00,,,0.00,0.000000,,2013-08-30 12:01:00,
2013-08-30 07:42:00,73.0,70.0,-100.00,SSW,212,4.0,9.0,89,0.00,,,0.00,6.000000,,2013-08-30 12:42:00,
2013-08-30 07:52:00,73.0,70.0,-100.00,SSW,212,4.0,9.0,89,0.00,,,0.00,6.000000,,2013-08-30 12:52:00,
2013-08-30 08:02:00,73.0,70.0,-100.00,SSW,212,4.0,9.0,89,0.00,,,0.00,6.000000,,2013-08-30 13:02:00,
2013-08-30 08:42:00,78.0,71.0,-100.00,SW,222,4.0,8.0,78,0.00,,,0.00,98.000000,,2013-08-30 13:42:00,
2013-08-30 08:52:00,78.0,71.0,-100.00,SW,222,4.0,8.0,78,0.00,,,0.00,98.000000,,2013-08-30 13:52:00,
2013-08-30 09:02:00,78.0,71.0,-100.00,SW,222,4.0,8.0,78,0.00,,,0.00,98.000000,,2013-08-30 14:02:00,
2013-08-30 09:42:00,83.0,71.0,-100.00,SW,229,5.0,9.0,67,0.00,,,0.00,256.000000,,2013-08-30 14:42:00,
2013-08-30 09:52:00,83.0,71.0,-100.00,SW,229,5.0,9.0,67,0.00,,,0.00,256.000000,,2013-08-30 14:52:00,
2013-08-30 10:02:00,83.0,71.0,-100.00,SW,229,5.0,9.0,67,0.00,,,0.00,256.000000,,2013-08-30 15:02:00,
2013-08-30 10:43:00,87.0,71.0,-100.00,SW,229,6.0,10.0,59,0.00,,,0.00,430.000000,,2013-08-30 15:43:00,
2013-08-30 10:54:00,87.0,71.0,-100.00,SW,229,6.0,10.0,59,0.00,,,0.00,430.000000,,2013-08-30 15:54:00,
2013-08-30 11:05:00,87.0,71.0,-100.00,SW,229,6.0,10.0,59,0.00,,,0.00,430.000000,,2013-08-30 16:05:00,
2013-08-30 11:43:00,92.0,71.0,-100.00,SW,224,6.0,11.0,50,0.00,,,0.00,573.000000,,2013-08-30 16:43:00,
2013-08-30 11:53:00,92.0,71.0,-100.00,SW,224,6.0,11.0,50,0.00,,,0.00,573.000000,,2013-08-30 16:53:00,
2013-08-30 12:03:00,92.0,71.0,-100.00,SW,224,6.0,11.0,50,0.00,,,0.00,573.000000,,2013-08-30 17:03:00,
2013-08-30 12:42:00,95.0,70.0,-100.00,SW,216,7.0,11.0,44,0.00,,,0.00,691.000000,,2013-08-30 17:42:00,
2013-08-30 12:53:00,95.0,70.0,-100.00,SW,216,7.0,11.0,44,0.00,,,0.00,691.000000,,2013-08-30 17:53:00,
2013-08-30 13:02:00,95.0,70.0,-100.00,SW,216,7.0,11.0,44,0.00,,,0.00,691.000000,,2013-08-30 18:02:00,
2013-08-30 13:42:00,98.0,68.0,-100.00,SSW,209,7.0,11.0,38,0.00,,,0.00,757.000000,,2013-08-30 18:42:00,
2013-08-30 13:52:00,98.0,68.0,-100.00,SSW,209,7.0,11.0,38,0.00,,,0.00,757.000000,,2013-08-30 18:52:00,
2013-08-30 14:01:00,98.0,68.0,-100.00,SSW,209,7.0,11.0,38,0.00,,,0.00,757.000000,,2013-08-30 19:01:00,
2013-08-30 14:42:00,101.0,67.0,-100.00,SW,222,6.0,14.0,34,0.00,,,0.00,770.000000,,2013-08-30 19:42:00,
2013-08-30 14:53:00,101.0,67.0,-100.00,SW,222,6.0,14.0,34,0.00,,,0.00,770.000000,,2013-08-30 19:53:00,
2013-08-30 15:03:00,101.0,67.0,-100.00,SW,222,6.0,14.0,34,0.00,,,0.00,770.000000,,2013-08-30 20:03:00,
2013-08-30 15:43:00,102.0,67.0,-100.00,SW,231,8.0,15.0,32,0.00,,,0.00,722.000000,,2013-08-30 20:43:00,
2013-08-30 15:52:00,102.0,67.0,-100.00,SW,231,8.0,15.0,32,0.00,,,0.00,722.000000,,2013-08-30 20:52:00,
2013-08-30 16:02:00,102.0,67.0,-100.00,SW,231,8.0,15.0,32,0.00,,,0.00,722.000000,,2013-08-30 21:02:00,
2013-08-30 16:44:00,103.0,62.0,-100.00,West,270,7.0,15.0,27,0.00,,,0.00,633.000000,,2013-08-30 21:44:00,
2013-08-30 16:55:00,103.0,62.0,-100.00,West,270,7.0,15.0,27,0.00,,,0.00,633.000000,,2013-08-30 21:55:00,
2013-08-30 17:04:00,103.0,62.0,-100.00,West,270,7.0,15.0,27,0.00,,,0.00,633.000000,,2013-08-30 22:04:00,
2013-08-30 17:43:00,102.0,61.0,-100.00,WSW,257,7.0,14.0,26,0.00,,,0.00,503.000000,,2013-08-30 22:43:00,
2013-08-30 17:54:00,102.0,61.0,-100.00,WSW,257,7.0,14.0,26,0.00,,,0.00,503.000000,,2013-08-30 22:54:00,
2013-08-30 18:03:00,102.0,61.0,-100.00,WSW,257,7.0,14.0,26,0.00,,,0.00,503.000000,,2013-08-30 23:03:00,
2013-08-30 18:42:00,100.0,62.0,-100.00,WSW,258,6.0,13.0,29,0.00,,,0.00,339.000000,,2013-08-30 23:42:00,
2013-08-30 18:53:00,100.0,62.0,-100.00,WSW,258,6.0,13.0,29,0.00,,,0.00,339.000000,,2013-08-30 23:53:00,
2013-08-30 19:02:00,100.0,62.0,-100.00,WSW,258,6.0,13.0,29,0.00,,,0.00,339.000000,,2013-08-31 00:02:00,
2013-08-30 19:42:00,95.0,65.0,-100.00,West,268,3.0,9.0,37,0.00,,,0.00,102.000000,,2013-08-31 00:42:00,
2013-08-30 19:52:00,95.0,65.0,-100.00,West,268,3.0,9.0,37,0.00,,,0.00,102.000000,,2013-08-31 00:52:00,
2013-08-30 20:01:00,95.0,65.0,-100.00,West,268,3.0,9.0,37,0.00,,,0.00,102.000000,,2013-08-31 01:01:00,
2013-08-30 20:42:00,87.0,65.0,-100.00,WSW,257,2.0,5.0,48,0.00,,,0.00,13.000000,,2013-08-31 01:42:00,
2013-08-30 20:52:00,87.0,65.0,-100.00,WSW,257,2.0,5.0,48,0.00,,,0.00,13.000000,,2013-08-31 01:52:00,
2013-08-30 21:02:00,87.0,65.0,-100.00,WSW,257,2.0,5.0,48,0.00,,,0.00,13.000000,,2013-08-31 02:02:00,
2013-08-30 21:42:00,84.0,66.0,-100.00,West,277,2.0,4.0,55,0.00,,,0.00,0.000000,,2013-08-31 02:42:00,
2013-08-30 21:52:00,84.0,66.0,-100.00,West,277,2.0,4.0,55,0.00,,,0.00,0.000000,,2013-08-31 02:52:00,
2013-08-30 22:02:00,84.0,66.0,-100.00,West,277,2.0,4.0,55,0.00,,,0.00,0.000000,,2013-08-31 03:02:00,
2013-08-30 22:45:00,82.0,67.0,-100.00,West,280,2.0,4.0,60,0.00,,,0.00,0.000000,,2013-08-31 03:45:00,
2013-08-30 22:54:00,82.0,67.0,-100.00,West,280,2.0,4.0,60,0.00,,,0.00,0.000000,,2013-08-31 03:54:00,
2013-08-30 23:05:00,82.0,67.0,-100.00,West,280,2.0,4.0,60,0.00,,,0.00,0.000000,,2013-08-31 04:05:00,
2013-08-30 23:44:00,80.0,68.0,-100.00,WNW,291,3.0,5.0,67,0.00,,,0.00,0.000000,,2013-08-31 04:44:00,
2013-08-30 23:54:00,80.0,68.0,-100.00,WNW,291,3.0,5.0,67,0.00,,,0.00,0.000000,,2013-08-31 04:54:00,